Location: Passo di Treia
(43.2833°N, 13.3333°E)
Time: 04:43:58
(UTC+00:00)

Cosmos 1263 - Pass Details

Date: 09 December 2019
Orbit: 386 x 1339 km, 82.9° (Epoch: 21 January)

Event Time Altitude Azimuth Distance (km) Brightness Sun altitude
Rises 16:53:08 0° 183° (S) 2,412 8.4 -14.4°
Reaches altitude 10° 16:55:14 10° 181° (S) 1,482 7.3 -14.8°
Maximum altitude 16:58:20 73° 97° (E) 414 4.0 -15.3°
Enters shadow 17:00:12 21° 14° (NNE) 946 5.7 -15.6°
